DH1NAI-6 Weather Reports


time (UTC)temp
F
wind
direction
speed
knots
gust
knots
rain 1hr
in
rain 24hr
in
rain mn
in
humidity
%
barometer
mb
20260506080132 53 179 0.9 0.9 0.00 0.03 0.00 96 1004.0
20260506073113 53 87 0.9 0.9 0.00 0.03 0.00 97 1003.9
20260506072105 54 191 0.0 0.9 0.00 0.03 0.00 98 1003.8
20260506071057 53 184 1.7 1.7 0.00 0.03 0.00 98 1003.8
20260506062017 51 12 0.9 2.6 0.00 0.03 0.00 99 1004.0
20260506060953 51 243 1.7 3.5 0.00 0.03 0.00 99 1004.0
20260506044849 50 184 1.7 2.6 0.00 0.03 0.00 99 1004.0
20260506043841 50 31 0.9 0.9 0.00 0.03 0.00 99 1003.8
20260506042833 50 179 0.9 0.9 0.00 0.03 0.00 99 1003.6
20260506041825 50 19 2.6 2.6 0.00 0.03 0.00 99 1003.8
20260506040818 50 233 0.9 1.7 0.00 0.03 0.00 99 1003.6
20260506035809 50 312 0.0 0.9 0.04 0.02 0.00 99 1003.5
20260506034801 50 280 3.5 3.5 0.04 0.02 0.00 99 1003.5
20260506033753 50 129 0.9 1.7 0.04 0.02 0.00 99 1003.6
20260506032745 50 205 2.6 5.2 0.04 0.02 0.00 99 1003.5
20260506031737 51 193 0.9 0.9 0.00 0.01 0.00 99 1003.5
20260506030729 51 17 0.0 0.9 0.00 0.01 0.00 99 1003.5
20260506025721 51 192 0.9 1.7 0.04 0.01 0.00 99 1003.6
20260506024713 51 182 0.0 0.0 0.04 0.01 0.00 99 1003.7
20260506022657 51 178 0.9 1.7 0.04 0.01 0.00 99 1003.7
20260506021649 51 207 1.7 1.7 0.04 0.01 0.00 99 1003.6
20260506020625 51 144 0.9 0.9 0.04 0.01 0.00 99 1003.9
20260506015617 51 226 0.9 1.7 0.00 0.00 0.00 99 1003.8
20260506014613 51 156 0.0 0.9 0.00 0.00 0.00 99 1003.9
20260506013601 51 246 1.7 2.6 0.00 0.00 0.00 99 1004.0
20260506012553 51 144 0.0 0.0 0.00 0.00 0.00 99 1004.0
20260506011545 51 177 0.0 0.0 0.00 0.00 0.00 99 1004.0
20260506010537 51 104 0.0 0.0 0.00 0.00 0.00 99 1004.0
20260506005529 50 171 0.9 0.9 0.00 0.00 0.00 99 1003.9
20260506004521 51 111 0.9 1.7 0.00 0.00 0.00 99 1004.2
20260506003457 51 164 0.9 0.9 0.00 0.00 0.00 99 1004.1
20260506002449 51 120 0.0 0.9 0.00 0.00 0.00 99 1004.1
20260506001425 51 109 0.9 0.9 0.00 0.00 0.00 99 1004.2
20260506000417 51 18 1.7 1.7 0.00 0.00 0.00 99 1004.5
20260505235409 51 162 0.9 0.9 0.00 0.00 0.00 99 1004.5
20260505234401 51 166 0.9 0.9 0.00 0.00 0.00 99 1004.6
20260505233353 51 156 1.7 2.6 0.00 0.00 0.00 99 1004.5
20260505232345 51 145 0.0 0.9 0.00 0.00 0.00 99 1004.5
20260505231332 51 206 1.7 1.7 0.00 0.00 0.00 99 1004.4
20260505230313 51 173 0.0 0.0 0.00 0.00 0.00 99 1004.3
20260505225306 51 185 0.9 2.6 0.00 0.00 0.00 99 1004.3
20260505224257 51 181 0.0 0.9 0.00 0.00 0.00 99 1004.2
20260505223249 51 186 1.7 1.7 0.00 0.00 0.00 99 1004.2
20260505222225 51 253 1.7 1.7 0.00 0.00 0.00 99 1004.4
20260505221217 51 214 0.9 1.7 0.00 0.00 0.00 99 1004.3
20260505220209 51 213 2.6 3.5 0.00 0.00 0.00 99 1004.5
20260505215201 51 179 0.0 0.0 0.00 0.62 0.00 99 1004.6
20260505214153 51 184 0.0 0.0 0.00 0.62 0.00 99 1004.6
20260505213145 51 129 0.0 0.0 0.00 0.62 0.00 99 1004.6
20260505212132 51 160 0.9 0.9 0.00 0.62 0.00 99 1004.7
20260505211130 51 188 0.9 0.9 0.00 0.62 0.00 99 1004.6
20260505210121 51 171 1.7 1.7 0.00 0.62 0.00 99 1004.9
20260505205057 51 163 1.7 1.7 0.00 0.62 0.00 99 1004.7
20260505204049 51 164 0.9 0.9 0.00 0.62 0.00 99 1004.9
20260505203025 51 308 0.9 0.9 0.00 0.62 0.00 99 1004.8
20260505202017 51 156 0.0 0.9 0.00 0.62 0.00 99 1004.9
20260505201009 50 167 0.0 0.0 0.00 0.62 0.00 99 1004.8
20260505200001 51 186 0.0 0.9 0.04 0.62 0.00 99 1004.4
20260505194953 51 168 0.0 0.0 0.04 0.62 0.00 99 1004.3
20260505193946 51 162 0.0 0.0 0.04 0.62 0.00 99 1004.2
20260505192932 51 176 0.0 0.0 0.04 0.61 0.00 99 1004.0
20260505191929 51 163 0.0 0.0 0.04 0.60 0.00 99 1004.3
20260505190921 51 256 0.0 0.0 0.04 0.58 0.00 99 1004.6
20260505185857 51 98 1.7 1.7 0.04 0.57 0.00 99 1005.0
20260505184849 51 173 0.0 0.9 0.04 0.54 0.00 99 1005.0
20260505183825 52 201 3.5 3.5 0.04 0.50 0.00 99 1004.9
20260505182817 52 188 2.6 3.5 0.04 0.46 0.00 99 1005.3
20260505181809 52 24 1.7 2.6 0.04 0.39 0.00 99 1005.3
20260505180804 52 246 1.7 1.7 0.04 0.36 0.00 99 1005.3
20260505175753 53 260 0.9 1.7 0.04 0.32 0.00 98 1005.3
20260505174745 56 113 6.1 10.4 0.04 0.10 0.00 93 1005.1
20260505173732 58 125 1.7 1.7 0.00 0.06 0.00 88 1003.9
20260505172729 58 132 0.9 1.7 0.00 0.06 0.00 87 1003.9
20260505171721 59 106 0.9 0.9 0.00 0.06 0.00 88 1003.8
20260505170657 59 78 0.9 0.9 0.00 0.06 0.00 88 1003.9
20260505165649 60 140 2.6 3.5 0.00 0.06 0.00 86 1003.9
20260505164625 60 109 1.7 2.6 0.00 0.06 0.00 86 1004.0
20260505163617 60 140 0.9 0.9 0.00 0.06 0.00 87 1004.1
20260505162609 60 156 0.9 0.9 0.00 0.06 0.00 88 1004.1
20260505161601 60 149 0.0 0.0 0.00 0.06 0.00 93 1004.4
20260505160553 60 163 0.0 0.9 0.00 0.06 0.00 92 1004.6
20260505152521 59 125 1.7 2.6 0.04 0.06 0.00 92 1004.6
20260505151457 59 191 0.0 0.0 0.04 0.06 0.00 92 1004.8
20260505150449 60 163 0.0 0.0 0.00 0.05 0.00 91 1004.9
20260505140345 64 109 1.7 1.7 0.00 0.03 0.00 75 1005.1
20260505124242 67 102 2.6 2.6 0.00 0.03 0.00 72 1005.9
20260505123233 66 186 1.7 2.6 0.00 0.03 0.00 72 1006.0
20260505122226 67 189 2.6 6.1 0.00 0.03 0.00 73 1005.9
20260505121219 66 335 2.6 3.5 0.00 0.03 0.00 73 1006.0
20260505120153 64 288 1.7 3.5 0.00 0.03 0.00 76 1006.2
20260505115146 64 313 1.7 2.6 0.00 0.03 0.00 73 1006.2
20260505114132 65 327 3.5 3.5 0.00 0.03 0.00 71 1006.3
20260505113113 65 156 1.7 1.7 0.00 0.03 0.00 67 1006.2
20260505112105 65 211 1.7 2.6 0.00 0.03 0.00 68 1006.2
20260505111057 66 135 0.0 0.9 0.00 0.03 0.00 66 1006.1
20260505102002 66 145 1.7 2.6 0.00 0.03 0.00 71 1006.6
20260505100953 65 166 2.6 3.5 0.00 0.03 0.00 69 1006.8
20260505095946 67 139 2.6 2.6 0.00 0.03 0.00 72 1007.0
20260505094932 66 137 3.5 3.5 0.00 0.03 0.00 73 1006.8
20260505093930 65 206 0.9 0.9 0.00 0.03 0.00 73 1007.0
20260505092921 64 143 1.7 2.6 0.00 0.03 0.00 77 1007.1
20260505091857 64 164 3.5 3.5 0.00 0.03 0.00 78 1007.0
20260505090833 64 181 1.7 2.6 0.00 0.03 0.00 81 1007.2
20260505085825 63 154 0.9 1.7 0.00 0.03 0.00 82 1007.2
20260505084818 63 137 2.6 2.6 0.00 0.03 0.00 80 1007.4
20260505083809 62 149 1.7 1.7 0.00 0.03 0.00 85 1007.4
20260505082802 61 36 0.0 0.0 0.00 0.03 0.00 85 1007.3
20260505081753 59 136 0.0 0.9 0.00 0.03 0.00 88 1007.4